AirNav   Everest Fuels
 
 1159 users online  

MY80 Rosenberg Airport
Ceylon, Minnesota, USA

GOING TO CEYLON?


FAA INFORMATION EFFECTIVE 01 DECEMBER 2022

Location

FAA Identifier: MY80
Lat/Long: 43-31-19.8410N 094-34-56.9210W
43-31.330683N 094-34.948683W
43.5221781,-94.5824781
(estimated)
Elevation: 1255 ft. / 383 m (estimated)
Variation: 05E (1985)
From city: 3 miles SE of CEYLON, MN
Time zone: UTC -6 (UTC -5 during Daylight Saving Time)
Zip code: 56121

Airport Operations

Airport use: Private use. Permission required prior to landing
Activation date: 02/1987
Control tower: no
ARTCC: MINNEAPOLIS CENTER
FSS: FORT DODGE FLIGHT SERVICE STATION
Attendance: UNATNDD
Wind indicator: yes
Segmented circle: no

Airport Communications

WX ASOS at EST (10 nm SW): 121.425 (712-362-7250)
WX AWOS-3PT at FRM (10 nm NE): 120.025 (507-238-1562)
WX AWOS-3 at MJQ (19 nm NW): 118.1 (507-847-5810)

Nearby radio navigation aids

VOR radial/distance  VOR name  Freq  Var
SPWr046/34.6SPENCER VOR/DME115.1505E

 
NDB name  Hdg/Dist  Freq  Var  ID
MONTZ251/11.942004EFQ ..-. --.-

Airport Services

Runway Information

Runway 10/28

Dimensions: 2500 x 90 ft. / 762 x 27 m
Surface: turf
RUNWAY 10  RUNWAY 28
Traffic pattern: leftleft
Displaced threshold: 500 ft.no
Obstructions: 30 ft. trees, 500 ft. from runwaynone

Airport Ownership and Management from official FAA records

Ownership: Privately-owned
Owner: GERALD A. ROSENBERG
1425 30TH ST
CEYLON, MN 56121
Phone 507-632-4246
Manager: GERALD A. ROSENBERG
1425 30TH ST
CEYLON, MN 56121
Phone 507-632-4246

Additional Remarks

EMERGENCY LANDING ONLY.
DO NOT CHART PER MINNESOTA DEPARTMENT OF TRANSPORTATION
FOR CD CTC MINNEAPOLIS ARTCC AT 651-463-5588.

Instrument Procedures

There are no published instrument procedures at MY80.

Some nearby airports with instrument procedures:

KEST - Estherville Municipal Airport (10 nm SW)
KFRM - Fairmont Municipal Airport (10 nm NE)
KMJQ - Jackson Municipal Airport (19 nm NW)
KSBU - Blue Earth Municipal Airport (22 nm E)
KEGQ - Emmetsburg Municipal Airport (26 nm S)
 
Loc | Ops | Rwys | IFR | FBO | Links
Com | Nav | Svcs | Stats | Notes
Area around MY80 (Rosenberg Airport)
 
Road maps at: MapQuest Bing Google
 
Aerial photo
No photo
 
Sectional chart

 
Airport distance calculator
Flying to Rosenberg Airport? Find the distance to fly.

From to MY80

Sunrise and sunset
Times for 03-Dec-2022
 Local
(UTC-6)
 Zulu
(UTC)
Morning civil twilight07:0213:02
Sunrise07:3513:35
Sunset16:4222:42
Evening civil twilight17:1423:14

Current date and time
Zulu (UTC)  04-Dec-2022 01:39:47
Local (UTC-6)  03-Dec-2022 19:39:47
 
METAR
KFRM 
10nm NE 
032356Z AUTO 19015KT 10SM CLR M09/M13 A3027 RMK AO2 SLP281 T10941128 11078 21117 58035 FZRANO
KEST 
10nm SW 
040052Z AUTO 21013KT 10SM CLR M07/M12 A3025 RMK AO2 SLP272 T10671117
KMJQ 
18nm W 
040115Z AUTO 20013KT 10SM CLR M06/M11 A3022 RMK AO2
TAF
NOTAMs
Click for the latest NOTAMs
NOTAMs are issued by the DoD/FAA and will open in a separate window not controlled by AirNav.

 

 
 

Would you like to see your business listed on this page?

 If your business provides an interesting product or service to pilots, flight crews, aircraft, or users of the Rosenberg Airport, you should consider listing it here.  To start the listing process, click on the button below
 
Add a business
 

Other Pages about Rosenberg Airport

Update a link
 
Copyright © AirNav, LLC. All rights reserved. Privacy Policy  Contact